Location: Minneapolis
(45.0000°N, 93.0000°W)
Time: 07:30:52
(UTC-05:00)

Envisat - Pass Details

Date: 15 March 2018
Orbit: 764 x 766 km, 98.2° (Epoch: 21 June)

Event Time Altitude Azimuth Distance (km) Brightness Sun altitude
Rises 20:17:18 0° 157° (SSE) 3,215 5.9 -11.2°
Reaches altitude 10° 20:19:36 10° 155° (SSE) 2,293 5.1 -11.6°
Maximum altitude 20:24:37 68° 73° (ENE) 824 3.0 -12.5°
Drops below altitude 10° 20:29:40 10° 352° (N) 2,310 5.7 -13.4°
Sets 20:31:59 0° 350° (N) 3,241 6.5 -13.8°
